Flag for USA

Past Weather in Ken Malloy Harbor Regional Park, California, USA — Yesterday and Last 2 Weeks

Now
59 °F

Clear.


Feels Like: 59 °F
Forecast: 66 / 55 °F
Wind: 5 mph from North

Location: Los Angeles / USC Campus Downtown

Current Time: May 22, 2019 at 4:12:11 am

Latest Report: May 22, 2019 at 3:47 am


Visibility: 10 mi

Pressure: 29.70 "Hg

Humidity: 67%

Dew Point: 48 °F

Location of Ken Malloy Harbor Regional ParkLocation

Past Weather in Ken Malloy Harbor Regional Park — Graph

°F

Ken Malloy Harbor Regional Park Temperature Yesterday

Maximum temperature yesterday: 67 °F (at 11:47 am)
Minimum temperature yesterday: 58 °F (at 12:04 am)
Average temperature yesterday: 62 °F

High & Low Weather Summary for the Past Weeks

 TemperatureHumidityPressure
High74 °F (May 11, 11:47 am)93% (May 16, 7:12 am)30.08 "Hg (May 16, 7:12 am)
Low52 °F (May 19, 4:04 am)35% (May 17, 10:47 am)29.72 "Hg (May 22, 1:47 am)
Average62 °F71%29.92 "Hg
* Reported May 7 1:47 am — May 22 1:47 am, Ken Malloy Harbor Regional Park. Weather by CustomWeather, © 2019

Note: Actual official high and low records may vary slightly from our data, if they occured in-between our weather recording intervals... More about our weather records

Advertising

Ken Malloy Harbor Regional Park Weather History for the Previous 24 Hours

Scroll right to see more
 ConditionsComfort  
Time TempWeatherWind HumidityBarometerVisibility
1:47 am
Wed, May 22
59 °FOvercast.No wind72%29.72 "Hg10 mi
12:47 am61 °FPassing clouds.No wind62%29.74 "Hg10 mi
11:47 pm
Tue, May 21
61 °FPassing clouds.No wind65%29.76 "Hg10 mi
10:47 pm62 °FOvercast.6 mph62%29.76 "Hg10 mi
9:47 pm62 °FPassing clouds.7 mph62%29.76 "Hg10 mi
8:47 pm63 °FPassing clouds.5 mph60%29.75 "Hg10 mi
7:47 pm63 °FSunny.No wind60%29.74 "Hg10 mi
6:47 pm65 °FSunny.No wind56%29.74 "Hg10 mi
5:47 pm66 °FBroken clouds.5 mph54%29.76 "Hg10 mi
4:47 pm65 °FScattered clouds.3 mph56%29.78 "Hg10 mi
3:47 pm65 °FPassing clouds.10 mph56%29.80 "Hg10 mi
2:47 pm66 °FSunny.N/A52%29.83 "Hg10 mi
1:47 pm65 °FSunny.N/A56%29.84 "Hg10 mi
12:47 pm65 °FSunny.6 mph56%29.86 "Hg10 mi
11:47 am67 °FSunny.N/A53%29.87 "Hg10 mi
10:47 am65 °FBroken clouds.3 mph61%29.88 "Hg10 mi
9:52 am64 °FScattered clouds.5 mph65%29.90 "Hg10 mi
9:16 am61 °FCloudy.No wind72%29.91 "Hg10 mi
9:13 am61 °FCloudy.No wind72%29.92 "Hg10 mi
8:26 am62 °FCloudy.No wind70%29.92 "Hg10 mi
7:47 am58 °FMostly cloudy.3 mph81%29.92 "Hg10 mi
6:47 am59 °FOvercast.No wind75%29.93 "Hg10 mi
5:47 am58 °FMostly cloudy.No wind78%29.92 "Hg10 mi
4:47 am58 °FPassing clouds.No wind75%29.92 "Hg10 mi
Weather by CustomWeather, © 2019

See weather overview